Location: Street
(51.1247°N, 2.7429°W)
Time: 12:14:51
(UTC+01:00)

NANOSAT C BR1 - Visible Passes

Search period start: 02 April 2023 00:00
Search period end: 12 April 2023 00:00
Orbit: 575 x 590 km, 98.0° (Epoch: 02 April)

Date Brightness Start Highest point End Pass type
(mag) Time Alt. Az. Time Alt. Az. Time Alt. Az.
02 Apr ? 02:33:51 10° ENE 02:34:39 11° E 02:34:39 11° E visible
02 Apr ? 04:06:39 10° NNE 04:10:48 88° ESE 04:11:03 79° S visible
02 Apr ? 05:43:31 10° NNW 05:45:32 13° NW 05:47:27 10° W visible
03 Apr ? 02:38:59 10° ENE 02:40:38 12° E 02:40:38 12° E visible
03 Apr ? 04:12:27 10° NNE 04:16:36 82° WNW 04:17:02 69° SW visible
03 Apr ? 05:49:37 10° NNW 05:51:15 12° NW 05:52:53 10° WNW visible
04 Apr ? 02:44:21 10° ENE 02:46:31 14° E 02:46:36 14° E visible
04 Apr ? 04:18:15 10° N 04:22:21 72° WNW 04:23:00 59° SW visible
04 Apr ? 05:55:52 10° NW 05:56:57 11° NW 05:58:02 10° WNW visible
05 Apr ? 02:49:50 10° NE 02:52:20 16° E 02:52:33 15° E visible
05 Apr ? 04:24:02 10° N 04:28:07 63° WNW 04:28:57 50° SW visible
06 Apr ? 02:55:21 10° NE 02:58:08 17° E 02:58:29 17° E visible
06 Apr ? 04:29:48 10° N 04:33:50 56° WNW 04:34:53 42° WSW visible
07 Apr ? 03:00:53 10° NE 03:03:56 20° E 03:04:24 19° ESE visible
07 Apr ? 04:35:34 10° N 04:39:33 49° WNW 04:40:48 36° WSW visible
08 Apr ? 03:06:27 10° NE 03:09:41 22° E 03:10:18 21° ESE visible
08 Apr ? 04:41:19 10° N 04:45:14 43° WNW 04:46:41 30° WSW visible
09 Apr ? 03:12:01 10° NE 03:15:25 25° E 03:16:10 23° ESE visible
09 Apr ? 04:47:04 10° N 04:50:54 38° WNW 04:52:33 26° WSW visible
10 Apr ? 03:17:34 10° NE 03:21:08 28° E 03:22:01 25° ESE visible
10 Apr ? 04:52:48 10° N 04:56:31 34° WNW 04:58:25 22° WSW visible
11 Apr ? 03:23:08 10° NNE 03:26:50 31° E 03:27:52 27° SE visible
11 Apr ? 04:58:31 10° N 05:02:09 31° WNW 05:04:15 19° WSW visible
